Time,TemperatureF,DewpointF,PressureIn,WindDirection,WindDirectionDegrees,WindSpeedMPH,WindSpeedGustMPH,Humidity,HourlyPrecipIn,Conditions,Clouds,dailyrainin,SolarRadiationWatts/m^2,SoftwareType,DateUTC
2013-06-14 00:03:00,63.3,58.4,29.91,West,259,2.0,2.0,84,0.00,CLR,,0.00,0.0,WeatherDisplay:10.37,2013-06-14 07:03:00,
2013-06-14 00:08:00,63.2,58.3,29.90,West,259,2.3,2.3,84,0.00,CLR,,0.00,0.0,WeatherDisplay:10.37,2013-06-14 07:08:00,
2013-06-14 00:13:00,63.2,58.3,29.91,West,259,2.0,2.0,84,0.00,CLR,,0.00,0.0,WeatherDisplay:10.37,2013-06-14 07:13:00,
2013-06-14 00:18:00,63.2,58.3,29.90,West,259,1.2,1.2,84,0.00,CLR,,0.00,0.0,WeatherDisplay:10.37,2013-06-14 07:18:00,
2013-06-14 00:23:00,63.2,58.3,29.90,West,259,1.2,0.0,84,0.00,CLR,,0.00,0.0,WeatherDisplay:10.37,2013-06-14 07:23:00,
2013-06-14 00:28:00,63.1,58.2,29.90,West,259,2.3,2.3,84,0.00,CLR,,0.00,0.0,WeatherDisplay:10.37,2013-06-14 07:28:00,
2013-06-14 00:33:00,63.0,58.1,29.90,West,259,2.3,2.3,84,0.00,CLR,,0.00,0.0,WeatherDisplay:10.37,2013-06-14 07:33:00,
2013-06-14 00:38:00,63.0,58.1,29.90,West,259,3.5,3.5,84,0.00,CLR,,0.00,0.0,WeatherDisplay:10.37,2013-06-14 07:38:00,
2013-06-14 00:43:00,62.9,58.0,29.90,West,259,3.5,3.5,84,0.00,CLR,,0.00,0.0,WeatherDisplay:10.37,2013-06-14 07:43:00,
2013-06-14 00:48:00,62.9,58.0,29.90,West,259,2.3,2.3,84,0.00,CLR,,0.00,0.0,WeatherDisplay:10.37,2013-06-14 07:48:00,
2013-06-14 00:53:00,62.9,58.0,29.90,West,259,2.3,2.3,84,0.00,CLR,,0.00,0.0,WeatherDisplay:10.37,2013-06-14 07:53:00,
2013-06-14 00:58:00,62.9,58.0,29.90,West,259,1.0,1.0,84,0.00,CLR,,0.00,0.0,WeatherDisplay:10.37,2013-06-14 07:58:00,
2013-06-14 01:03:00,62.9,58.0,29.90,South,173,4.0,4.0,84,0.00,CLR,,0.00,0.0,WeatherDisplay:10.37,2013-06-14 08:03:00,
2013-06-14 01:08:00,63.0,58.1,29.89,SE,130,3.0,3.0,84,0.00,CLR,,0.00,0.0,WeatherDisplay:10.37,2013-06-14 08:08:00,
2013-06-14 01:14:00,63.0,58.1,29.89,SE,133,4.0,4.0,84,0.00,CLR,,0.00,0.0,WeatherDisplay:10.37,2013-06-14 08:14:00,
2013-06-14 01:19:00,63.0,58.4,29.90,SE,138,3.5,3.5,85,0.00,CLR,,0.00,0.0,WeatherDisplay:10.37,2013-06-14 08:19:00,
2013-06-14 01:24:00,62.9,58.0,29.90,SE,140,3.5,3.5,84,0.00,CLR,,0.00,0.0,WeatherDisplay:10.37,2013-06-14 08:24:00,
2013-06-14 01:29:00,62.8,58.2,29.89,SE,142,3.5,3.5,85,0.00,CLR,,0.00,0.0,WeatherDisplay:10.37,2013-06-14 08:29:00,
2013-06-14 01:34:00,62.7,58.1,29.90,SE,142,3.5,3.5,85,0.00,CLR,,0.00,0.0,WeatherDisplay:10.37,2013-06-14 08:34:00,
2013-06-14 01:39:00,62.5,57.9,29.89,SSE,163,3.5,3.5,85,0.00,CLR,,0.00,0.0,WeatherDisplay:10.37,2013-06-14 08:39:00,
2013-06-14 01:44:00,62.4,58.2,29.89,SSE,152,3.5,3.5,86,0.00,CLR,,0.00,0.0,WeatherDisplay:10.37,2013-06-14 08:44:00,
2013-06-14 01:49:00,62.3,58.1,29.89,SSE,156,4.0,4.0,86,0.00,CLR,,0.00,0.0,WeatherDisplay:10.37,2013-06-14 08:49:00,
2013-06-14 01:54:00,62.3,58.1,29.89,SSE,157,4.0,4.0,86,0.00,CLR,,0.00,0.0,WeatherDisplay:10.37,2013-06-14 08:54:00,
2013-06-14 01:59:00,62.2,58.0,29.89,South,176,5.0,5.0,86,0.00,CLR,,0.00,0.0,WeatherDisplay:10.37,2013-06-14 08:59:00,
2013-06-14 02:04:00,62.3,58.1,29.89,South,175,4.6,4.6,86,0.00,CLR,,0.00,0.0,WeatherDisplay:10.37,2013-06-14 09:04:00,
2013-06-14 02:09:00,62.3,58.1,29.89,South,180,5.8,5.8,86,0.00,CLR,,0.00,0.0,WeatherDisplay:10.37,2013-06-14 09:09:00,
2013-06-14 02:14:00,62.3,58.1,29.89,South,175,3.5,3.5,86,0.00,CLR,,0.00,0.0,WeatherDisplay:10.37,2013-06-14 09:14:00,
2013-06-14 02:19:00,62.4,58.2,29.89,SSE,163,4.6,4.6,86,0.00,CLR,,0.00,0.0,WeatherDisplay:10.37,2013-06-14 09:19:00,
2013-06-14 02:24:00,62.5,58.3,29.89,SSE,167,4.6,4.6,86,0.00,CLR,,0.00,0.0,WeatherDisplay:10.37,2013-06-14 09:24:00,
2013-06-14 02:29:00,62.5,58.3,29.89,South,169,3.5,3.5,86,0.00,CLR,,0.00,0.0,WeatherDisplay:10.37,2013-06-14 09:29:00,
2013-06-14 02:34:00,62.5,58.3,29.89,SE,142,6.9,6.9,86,0.00,CLR,,0.00,0.0,WeatherDisplay:10.37,2013-06-14 09:34:00,
2013-06-14 02:39:00,62.4,58.2,29.89,SE,142,4.6,4.6,86,0.00,CLR,,0.00,0.0,WeatherDisplay:10.37,2013-06-14 09:39:00,
2013-06-14 02:44:00,62.5,58.3,29.89,South,182,4.6,4.6,86,0.00,CLR,,0.00,0.0,WeatherDisplay:10.37,2013-06-14 09:44:00,
2013-06-14 02:49:00,62.5,58.3,29.89,SSE,148,4.6,4.6,86,0.00,CLR,,0.00,0.0,WeatherDisplay:10.37,2013-06-14 09:49:00,
2013-06-14 02:54:00,62.5,58.3,29.89,SSE,147,2.3,0.0,86,0.00,CLR,,0.00,0.0,WeatherDisplay:10.37,2013-06-14 09:54:00,
2013-06-14 02:59:00,62.5,58.3,29.89,SSE,147,2.0,2.0,86,0.00,CLR,,0.00,0.0,WeatherDisplay:10.37,2013-06-14 09:59:00,
2013-06-14 03:04:00,62.6,58.4,29.89,South,183,4.6,4.6,86,0.00,CLR,,0.00,0.0,WeatherDisplay:10.37,2013-06-14 10:04:00,
2013-06-14 03:09:00,62.6,58.4,29.89,SSE,163,2.3,2.3,86,0.00,CLR,,0.00,0.0,WeatherDisplay:10.37,2013-06-14 10:09:00,
2013-06-14 03:14:00,62.6,58.4,29.89,SSE,163,2.0,2.0,86,0.00,CLR,,0.00,0.0,WeatherDisplay:10.37,2013-06-14 10:14:00,
2013-06-14 03:19:00,62.7,58.5,29.89,SE,145,5.0,5.0,86,0.00,CLR,,0.00,0.0,WeatherDisplay:10.37,2013-06-14 10:19:00,
2013-06-14 03:24:00,62.7,58.5,29.89,SSE,148,4.0,4.0,86,0.00,CLR,,0.00,0.0,WeatherDisplay:10.37,2013-06-14 10:24:00,
2013-06-14 03:29:00,62.7,58.5,29.89,SSE,148,3.5,3.5,86,0.00,CLR,,0.00,0.0,WeatherDisplay:10.37,2013-06-14 10:29:00,
2013-06-14 03:34:00,62.7,58.5,29.89,SSE,155,4.6,4.6,86,0.00,CLR,,0.00,0.0,WeatherDisplay:10.37,2013-06-14 10:34:00,
2013-06-14 03:39:00,62.7,58.5,29.89,SSE,155,2.3,2.3,86,0.00,CLR,,0.00,0.0,WeatherDisplay:10.37,2013-06-14 10:39:00,
2013-06-14 03:44:00,62.6,58.4,29.89,SSE,155,3.5,3.5,86,0.00,CLR,,0.00,0.0,WeatherDisplay:10.37,2013-06-14 10:44:00,
2013-06-14 03:49:00,62.6,58.4,29.89,SSE,155,1.2,0.0,86,0.00,CLR,,0.00,0.0,WeatherDisplay:10.37,2013-06-14 10:49:00,
2013-06-14 03:54:00,62.6,58.4,29.89,SSE,155,2.3,2.3,86,0.00,CLR,,0.00,0.0,WeatherDisplay:10.37,2013-06-14 10:54:00,
2013-06-14 03:59:00,62.7,58.5,29.89,SSE,155,3.5,3.5,86,0.00,CLR,,0.00,0.0,WeatherDisplay:10.37,2013-06-14 10:59:00,
2013-06-14 04:04:00,62.7,58.5,29.89,SSE,155,3.0,3.0,86,0.00,CLR,,0.00,0.0,WeatherDisplay:10.37,2013-06-14 11:04:00,
2013-06-14 04:09:00,62.7,58.5,29.89,SSE,157,3.5,3.5,86,0.00,CLR,,0.00,0.0,WeatherDisplay:10.37,2013-06-14 11:09:00,
2013-06-14 04:14:00,62.8,58.5,29.89,SSE,155,4.6,4.6,86,0.00,CLR,,0.00,0.0,WeatherDisplay:10.37,2013-06-14 11:14:00,
2013-06-14 04:19:00,62.9,58.6,29.89,SSE,155,1.2,1.2,86,0.00,CLR,,0.00,0.0,WeatherDisplay:10.37,2013-06-14 11:19:00,
2013-06-14 04:24:00,62.9,58.6,29.89,SSE,155,3.0,3.0,86,0.00,CLR,,0.00,0.0,WeatherDisplay:10.37,2013-06-14 11:24:00,
2013-06-14 04:29:00,62.9,58.6,29.89,SSE,155,1.2,1.2,86,0.00,CLR,,0.00,0.0,WeatherDisplay:10.37,2013-06-14 11:29:00,
2013-06-14 04:34:00,63.0,58.7,29.89,SSE,155,2.3,2.3,86,0.00,CLR,,0.00,0.0,WeatherDisplay:10.37,2013-06-14 11:34:00,
2013-06-14 04:39:00,63.0,58.7,29.89,SSE,155,3.5,3.5,86,0.00,CLR,,0.00,0.0,WeatherDisplay:10.37,2013-06-14 11:39:00,
2013-06-14 04:44:00,63.0,58.4,29.89,SSE,155,3.5,3.5,85,0.00,CLR,,0.00,0.0,WeatherDisplay:10.37,2013-06-14 11:44:00,
2013-06-14 04:49:00,63.0,58.4,29.89,SSE,155,0.0,0.0,85,0.00,CLR,,0.00,0.0,WeatherDisplay:10.37,2013-06-14 11:49:00,
2013-06-14 04:54:00,63.0,58.7,29.89,SSE,155,2.3,2.3,86,0.00,CLR,,0.00,0.0,WeatherDisplay:10.37,2013-06-14 11:54:00,
2013-06-14 04:59:00,63.1,58.5,29.89,SSE,155,3.5,3.5,85,0.00,CLR,,0.00,0.0,WeatherDisplay:10.37,2013-06-14 11:59:00,
2013-06-14 05:04:00,63.1,58.5,29.89,SSE,155,0.0,0.0,85,0.00,CLR,,0.00,0.0,WeatherDisplay:10.37,2013-06-14 12:04:00,
2013-06-14 05:09:00,63.1,58.5,29.89,SSE,155,2.3,2.3,85,0.00,CLR,,0.00,0.0,WeatherDisplay:10.37,2013-06-14 12:09:00,
2013-06-14 05:14:00,63.1,58.5,29.89,SSE,155,2.3,0.0,85,0.00,CLR,,0.00,0.0,WeatherDisplay:10.37,2013-06-14 12:14:00,
2013-06-14 05:19:00,63.2,58.9,29.89,SSE,150,3.5,3.5,86,0.00,CLR,,0.00,0.0,WeatherDisplay:10.37,2013-06-14 12:19:00,
2013-06-14 05:24:00,63.2,58.6,29.90,SSE,150,4.6,4.6,85,0.00,CLR,,0.00,0.0,WeatherDisplay:10.37,2013-06-14 12:24:00,
2013-06-14 05:29:00,63.2,58.6,29.90,SSE,150,3.5,3.5,85,0.00,CLR,,0.00,0.0,WeatherDisplay:10.37,2013-06-14 12:29:00,
2013-06-14 05:34:00,63.2,58.6,29.90,SSE,150,3.5,3.5,85,0.00,CLR,,0.00,0.0,WeatherDisplay:10.37,2013-06-14 12:34:00,
2013-06-14 05:39:00,63.2,58.6,29.90,SSE,150,2.3,2.3,85,0.00,CLR,,0.00,0.0,WeatherDisplay:10.37,2013-06-14 12:39:00,
2013-06-14 05:44:00,63.1,58.5,29.90,SSE,150,1.2,0.0,85,0.00,CLR,,0.00,0.0,WeatherDisplay:10.37,2013-06-14 12:44:00,
2013-06-14 05:49:00,63.1,58.8,29.90,SSE,150,3.5,3.5,86,0.00,CLR,,0.00,0.0,WeatherDisplay:10.37,2013-06-14 12:49:00,
2013-06-14 05:54:00,63.1,58.8,29.90,SSE,153,3.5,3.5,86,0.00,CLR,,0.00,0.0,WeatherDisplay:10.37,2013-06-14 12:54:00,
2013-06-14 05:59:00,63.1,58.8,29.90,SSE,158,3.5,3.5,86,0.00,CLR,,0.00,0.0,WeatherDisplay:10.37,2013-06-14 12:59:00,
2013-06-14 06:04:00,63.2,58.6,29.90,SE,140,5.8,5.8,85,0.00,BKN,,0.00,5.0,WeatherDisplay:10.37,2013-06-14 13:04:00,
2013-06-14 06:09:00,63.2,58.6,29.90,SE,141,3.5,3.5,85,0.00,BKN,,0.00,7.0,WeatherDisplay:10.37,2013-06-14 13:09:00,
2013-06-14 06:14:00,63.2,58.6,29.90,SSE,149,4.0,4.0,85,0.00,BKN,,0.00,9.0,WeatherDisplay:10.37,2013-06-14 13:14:00,
2013-06-14 06:19:00,63.2,58.6,29.90,South,170,3.5,3.5,85,0.00,BKN,,0.00,14.0,WeatherDisplay:10.37,2013-06-14 13:19:00,
2013-06-14 06:24:00,63.2,58.6,29.90,SSE,162,3.5,3.5,85,0.00,BKN,,0.00,18.0,WeatherDisplay:10.37,2013-06-14 13:24:00,
2013-06-14 06:29:00,63.3,58.7,29.90,SSE,156,5.0,5.0,85,0.00,BKN,,0.00,21.0,WeatherDisplay:10.37,2013-06-14 13:29:00,
2013-06-14 06:34:00,63.2,58.6,29.90,SSE,156,3.5,3.5,85,0.00,BKN,,0.00,23.0,WeatherDisplay:10.37,2013-06-14 13:34:00,
2013-06-14 06:39:00,63.2,58.3,29.90,SSE,155,3.5,3.5,84,0.00,BKN,,0.00,25.0,WeatherDisplay:10.37,2013-06-14 13:39:00,
2013-06-14 06:44:00,63.2,58.3,29.90,ESE,119,3.5,3.5,84,0.00,BKN,,0.00,26.0,WeatherDisplay:10.37,2013-06-14 13:44:00,
2013-06-14 06:49:00,63.3,58.4,29.90,SE,140,7.0,7.0,84,0.00,BKN,,0.00,28.0,WeatherDisplay:10.37,2013-06-14 13:49:00,
2013-06-14 06:54:00,63.2,58.3,29.90,SSE,148,4.6,4.6,84,0.00,BKN,,0.00,28.0,WeatherDisplay:10.37,2013-06-14 13:54:00,
2013-06-14 06:59:00,63.2,58.3,29.90,SSE,148,2.0,2.0,84,0.00,BKN,,0.00,32.0,WeatherDisplay:10.37,2013-06-14 13:59:00,
2013-06-14 07:04:00,63.2,58.3,29.91,SSE,148,3.5,3.5,84,0.00,BKN,,0.00,33.0,WeatherDisplay:10.37,2013-06-14 14:04:00,
2013-06-14 07:09:00,63.3,58.0,29.91,SE,124,5.0,5.0,83,0.00,BKN,,0.00,39.0,WeatherDisplay:10.37,2013-06-14 14:09:00,
2013-06-14 07:14:00,63.2,57.9,29.91,South,171,3.5,3.5,83,0.00,BKN,,0.00,42.0,WeatherDisplay:10.37,2013-06-14 14:14:00,
2013-06-14 07:19:00,63.2,57.9,29.91,SE,136,6.0,6.0,83,0.00,BKN,,0.00,49.0,WeatherDisplay:10.37,2013-06-14 14:19:00,
2013-06-14 07:24:00,63.2,57.9,29.91,SE,130,3.5,3.5,83,0.00,BKN,,0.00,56.0,WeatherDisplay:10.37,2013-06-14 14:24:00,
2013-06-14 07:29:00,63.2,57.9,29.91,SE,138,3.5,3.5,83,0.00,BKN,,0.00,60.0,WeatherDisplay:10.37,2013-06-14 14:29:00,
2013-06-14 07:34:00,63.2,57.9,29.91,SSE,161,6.9,6.9,83,0.00,BKN,,0.00,63.0,WeatherDisplay:10.37,2013-06-14 14:34:00,
2013-06-14 07:39:00,63.3,58.0,29.91,SSE,168,3.5,3.5,83,0.00,BKN,,0.00,67.0,WeatherDisplay:10.37,2013-06-14 14:39:00,
2013-06-14 07:44:00,63.3,58.0,29.91,SSE,153,4.6,4.6,83,0.00,BKN,,0.00,72.0,WeatherDisplay:10.37,2013-06-14 14:44:00,
2013-06-14 07:49:00,63.4,58.1,29.91,SSW,198,6.9,6.9,83,0.00,BKN,,0.00,74.0,WeatherDisplay:10.37,2013-06-14 14:49:00,
2013-06-14 07:54:00,63.4,58.1,29.92,South,181,4.6,4.6,83,0.00,BKN,,0.00,76.0,WeatherDisplay:10.37,2013-06-14 14:54:00,
2013-06-14 07:59:00,63.3,58.0,29.91,South,187,3.5,3.5,83,0.00,BKN,,0.00,72.0,WeatherDisplay:10.37,2013-06-14 14:59:00,
2013-06-14 08:04:00,63.4,58.1,29.91,South,187,3.5,3.5,83,0.00,BKN,,0.00,76.0,WeatherDisplay:10.37,2013-06-14 15:04:00,
2013-06-14 08:09:00,63.4,58.1,29.92,SSE,163,2.3,2.3,83,0.00,BKN,,0.00,88.0,WeatherDisplay:10.37,2013-06-14 15:09:00,
2013-06-14 08:14:00,63.5,58.2,29.92,SE,129,5.8,5.8,83,0.00,BKN,,0.00,97.0,WeatherDisplay:10.37,2013-06-14 15:14:00,
2013-06-14 08:19:00,63.5,58.2,29.92,South,169,6.0,6.0,83,0.00,BKN,,0.00,95.0,WeatherDisplay:10.37,2013-06-14 15:19:00,
2013-06-14 08:24:00,63.3,57.7,29.92,SSE,149,3.5,3.5,82,0.00,BKN,,0.00,102.0,WeatherDisplay:10.37,2013-06-14 15:24:00,
2013-06-14 08:29:00,63.5,58.2,29.92,SSE,150,2.3,2.3,83,0.00,BKN,,0.00,104.0,WeatherDisplay:10.37,2013-06-14 15:29:00,
2013-06-14 08:34:00,63.5,57.9,29.92,SSE,155,3.5,3.5,82,0.00,BKN,,0.00,104.0,WeatherDisplay:10.37,2013-06-14 15:34:00,
2013-06-14 08:39:00,63.5,57.9,29.92,SSE,155,3.5,3.5,82,0.00,BKN,,0.00,105.0,WeatherDisplay:10.37,2013-06-14 15:39:00,
2013-06-14 08:44:00,63.7,58.1,29.92,SSE,167,4.6,4.6,82,0.00,BKN,,0.00,120.0,WeatherDisplay:10.37,2013-06-14 15:44:00,
2013-06-14 08:49:00,63.7,58.1,29.92,South,170,3.5,3.5,82,0.00,BKN,,0.00,121.0,WeatherDisplay:10.37,2013-06-14 15:49:00,
2013-06-14 08:54:00,63.8,57.9,29.92,South,182,3.5,3.5,81,0.00,BKN,,0.00,127.0,WeatherDisplay:10.37,2013-06-14 15:54:00,
2013-06-14 08:59:00,63.9,58.0,29.92,SSW,194,5.8,5.8,81,0.00,BKN,,0.00,132.0,WeatherDisplay:10.37,2013-06-14 15:59:00,
2013-06-14 09:04:00,64.0,58.4,29.92,SE,136,3.5,3.5,82,0.00,BKN,,0.00,141.0,WeatherDisplay:10.37,2013-06-14 16:04:00,
2013-06-14 09:09:00,64.2,58.2,29.92,SSE,153,5.8,5.8,81,0.00,BKN,,0.00,151.0,WeatherDisplay:10.37,2013-06-14 16:09:00,
2013-06-14 09:14:00,64.4,58.1,29.91,SSE,162,4.6,4.6,80,0.00,BKN,,0.00,165.0,WeatherDisplay:10.37,2013-06-14 16:14:00,
2013-06-14 09:19:00,64.4,58.1,29.92,SSW,206,6.0,6.0,80,0.00,BKN,,0.00,174.0,WeatherDisplay:10.37,2013-06-14 16:19:00,
2013-06-14 09:24:00,64.4,58.1,29.91,SSE,163,6.9,6.9,80,0.00,BKN,,0.00,190.0,WeatherDisplay:10.37,2013-06-14 16:24:00,
2013-06-14 09:29:00,64.4,58.1,29.91,SSE,163,1.2,1.2,80,0.00,BKN,,0.00,206.0,WeatherDisplay:10.37,2013-06-14 16:29:00,
2013-06-14 09:34:00,64.5,58.2,29.91,SE,142,3.5,3.5,80,0.00,BKN,,0.00,209.0,WeatherDisplay:10.37,2013-06-14 16:34:00,
2013-06-14 09:39:00,64.7,58.0,29.92,SE,146,5.8,5.8,79,0.00,BKN,,0.00,216.0,WeatherDisplay:10.37,2013-06-14 16:39:00,
2013-06-14 09:44:00,64.8,58.5,29.92,SSE,147,1.2,1.2,80,0.00,BKN,,0.00,214.0,WeatherDisplay:10.37,2013-06-14 16:44:00,
2013-06-14 09:49:00,65.1,58.4,29.91,SSE,147,2.3,2.3,79,0.00,BKN,,0.00,237.0,WeatherDisplay:10.37,2013-06-14 16:49:00,
2013-06-14 09:54:00,65.4,58.4,29.91,SSE,147,3.5,0.0,78,0.00,BKN,,0.00,251.0,WeatherDisplay:10.37,2013-06-14 16:54:00,
2013-06-14 09:59:00,65.7,58.3,29.91,SSE,158,3.5,3.5,77,0.00,BKN,,0.00,250.0,WeatherDisplay:10.37,2013-06-14 16:59:00,
2013-06-14 10:04:00,65.7,58.3,29.91,East,101,3.5,3.5,77,0.00,BKN,,0.00,274.0,WeatherDisplay:10.37,2013-06-14 17:04:00,
2013-06-14 10:09:00,65.9,58.5,29.91,SE,125,3.5,3.5,77,0.00,BKN,,0.00,301.0,WeatherDisplay:10.37,2013-06-14 17:09:00,
2013-06-14 10:14:00,66.1,58.3,29.91,SSE,156,4.6,4.6,76,0.00,BKN,,0.00,346.0,WeatherDisplay:10.37,2013-06-14 17:14:00,
2013-06-14 10:19:00,66.2,58.4,29.91,SE,143,2.3,2.3,76,0.00,BKN,,0.00,343.0,WeatherDisplay:10.37,2013-06-14 17:19:00,
2013-06-14 10:24:00,66.6,58.8,29.91,SE,146,3.5,3.5,76,0.00,BKN,,0.00,388.0,WeatherDisplay:10.37,2013-06-14 17:24:00,
2013-06-14 10:29:00,66.7,58.5,29.91,SSW,207,6.9,6.9,75,0.00,BKN,,0.00,438.0,WeatherDisplay:10.37,2013-06-14 17:29:00,
2013-06-14 10:34:00,66.7,58.5,29.91,SSE,167,3.0,3.0,75,0.00,BKN,,0.00,461.0,WeatherDisplay:10.37,2013-06-14 17:34:00,
2013-06-14 10:39:00,67.0,58.8,29.91,SE,138,6.9,6.9,75,0.00,BKN,,0.00,454.0,WeatherDisplay:10.37,2013-06-14 17:39:00,
2013-06-14 10:44:00,67.0,58.8,29.91,SSW,204,3.5,3.5,75,0.00,BKN,,0.00,418.0,WeatherDisplay:10.37,2013-06-14 17:44:00,
2013-06-14 10:49:00,67.3,58.7,29.91,SSW,205,2.3,0.0,74,0.00,BKN,,0.00,446.0,WeatherDisplay:10.37,2013-06-14 17:49:00,
2013-06-14 10:54:00,68.0,59.0,29.91,ESE,109,3.5,3.5,73,0.00,CLR,,0.00,962.0,WeatherDisplay:10.37,2013-06-14 17:54:00,
2013-06-14 10:59:00,68.8,59.4,29.91,West,263,4.0,4.0,72,0.00,CLR,,0.00,1032.0,WeatherDisplay:10.37,2013-06-14 17:59:00,
2013-06-14 11:04:00,69.0,59.2,29.91,SSW,196,9.2,9.2,71,0.00,CLR,,0.00,1004.0,WeatherDisplay:10.37,2013-06-14 18:04:00,
2013-06-14 11:09:00,68.7,58.9,29.91,SSW,198,10.4,10.4,71,0.00,SCT,,0.00,742.0,WeatherDisplay:10.37,2013-06-14 18:09:00,
2013-06-14 11:14:00,68.9,59.1,29.91,South,184,9.2,9.2,71,0.00,FEW,,0.00,884.0,WeatherDisplay:10.37,2013-06-14 18:14:00,
2013-06-14 11:19:00,69.3,59.5,29.91,SW,234,6.0,6.0,71,0.00,FEW,,0.00,867.0,WeatherDisplay:10.37,2013-06-14 18:19:00,
2013-06-14 11:24:00,69.5,59.3,29.91,West,260,3.5,3.5,70,0.00,FEW,,0.00,882.0,WeatherDisplay:10.37,2013-06-14 18:24:00,
2013-06-14 11:29:00,69.5,59.3,29.91,SE,133,9.2,9.2,70,0.00,FEW,,0.00,874.0,WeatherDisplay:10.37,2013-06-14 18:29:00,
2013-06-14 11:34:00,69.2,59.0,29.91,SSE,165,9.2,9.2,70,0.00,SCT,,0.00,877.0,WeatherDisplay:10.37,2013-06-14 18:34:00,
2013-06-14 11:39:00,69.6,59.0,29.91,WSW,253,8.1,8.1,69,0.00,FEW,,0.00,874.0,WeatherDisplay:10.37,2013-06-14 18:39:00,
2013-06-14 11:44:00,69.6,59.0,29.91,SSW,213,6.9,6.9,69,0.00,FEW,,0.00,907.0,WeatherDisplay:10.37,2013-06-14 18:44:00,
2013-06-14 11:49:00,70.0,59.8,29.90,South,171,8.1,8.1,70,0.00,FEW,,0.00,842.0,WeatherDisplay:10.37,2013-06-14 18:49:00,
2013-06-14 11:54:00,69.8,59.2,29.90,SW,227,4.0,4.0,69,0.00,FEW,,0.00,919.0,WeatherDisplay:10.37,2013-06-14 18:54:00,
2013-06-14 11:59:00,70.2,59.6,29.90,NW,305,7.0,7.0,69,0.00,SCT,,0.00,905.0,WeatherDisplay:10.37,2013-06-14 18:59:00,
2013-06-14 12:04:00,70.5,59.8,29.90,SSE,167,5.8,5.8,69,0.00,FEW,,0.00,888.0,WeatherDisplay:10.37,2013-06-14 19:04:00,
2013-06-14 12:09:00,70.7,59.2,29.90,SW,225,8.1,8.1,67,0.00,FEW,,0.00,891.0,WeatherDisplay:10.37,2013-06-14 19:09:00,
2013-06-14 12:14:00,70.7,59.2,29.90,SSE,152,9.0,9.0,67,0.00,FEW,,0.00,898.0,WeatherDisplay:10.37,2013-06-14 19:14:00,
2013-06-14 12:19:00,70.5,59.4,29.90,SSE,154,6.9,6.9,68,0.00,FEW,,0.00,895.0,WeatherDisplay:10.37,2013-06-14 19:19:00,
2013-06-14 12:24:00,70.8,59.3,29.90,SSE,151,6.9,6.9,67,0.00,FEW,,0.00,905.0,WeatherDisplay:10.37,2013-06-14 19:24:00,
2013-06-14 12:29:00,71.0,59.9,29.90,SW,216,8.1,8.1,68,0.00,FEW,,0.00,898.0,WeatherDisplay:10.37,2013-06-14 19:29:00,
2013-06-14 12:34:00,71.6,59.2,29.89,WNW,300,8.0,8.0,65,0.00,FEW,,0.00,902.0,WeatherDisplay:10.37,2013-06-14 19:34:00,
2013-06-14 12:39:00,71.5,59.1,29.89,West,261,7.0,7.0,65,0.00,FEW,,0.00,912.0,WeatherDisplay:10.37,2013-06-14 19:39:00,
2013-06-14 12:44:00,71.2,59.3,29.89,SSW,202,5.8,5.8,66,0.00,FEW,,0.00,909.0,WeatherDisplay:10.37,2013-06-14 19:44:00,
2013-06-14 12:49:00,71.2,59.3,29.89,SSE,158,6.0,6.0,66,0.00,FEW,,0.00,914.0,WeatherDisplay:10.37,2013-06-14 19:49:00,
2013-06-14 12:54:00,71.5,59.1,29.89,South,186,7.0,7.0,65,0.00,FEW,,0.00,912.0,WeatherDisplay:10.37,2013-06-14 19:54:00,
2013-06-14 12:59:00,71.7,59.3,29.89,West,265,7.0,7.0,65,0.00,FEW,,0.00,911.0,WeatherDisplay:10.37,2013-06-14 19:59:00,
2013-06-14 13:04:00,71.9,59.5,29.89,South,179,4.6,4.6,65,0.00,FEW,,0.00,909.0,WeatherDisplay:10.37,2013-06-14 20:04:00,
2013-06-14 13:09:00,72.2,59.3,29.89,West,267,9.0,9.0,64,0.00,FEW,,0.00,907.0,WeatherDisplay:10.37,2013-06-14 20:09:00,
2013-06-14 13:14:00,72.2,59.3,29.88,West,278,9.2,9.2,64,0.00,FEW,,0.00,909.0,WeatherDisplay:10.37,2013-06-14 20:14:00,
2013-06-14 13:19:00,72.7,59.4,29.88,SSW,212,7.0,7.0,63,0.00,FEW,,0.00,909.0,WeatherDisplay:10.37,2013-06-14 20:19:00,
2013-06-14 13:24:00,72.6,59.7,29.88,SW,221,3.5,3.5,64,0.00,FEW,,0.00,904.0,WeatherDisplay:10.37,2013-06-14 20:24:00,
2013-06-14 13:29:00,72.5,59.2,29.88,SSE,163,8.1,8.1,63,0.00,FEW,,0.00,900.0,WeatherDisplay:10.37,2013-06-14 20:29:00,
2013-06-14 13:34:00,72.7,59.4,29.88,South,169,9.2,9.2,63,0.00,FEW,,0.00,918.0,WeatherDisplay:10.37,2013-06-14 20:34:00,
2013-06-14 13:39:00,72.8,59.0,29.88,South,179,8.1,8.1,62,0.00,FEW,,0.00,907.0,WeatherDisplay:10.37,2013-06-14 20:39:00,
2013-06-14 13:44:00,73.1,59.3,29.88,SSE,159,6.9,6.9,62,0.00,FEW,,0.00,895.0,WeatherDisplay:10.37,2013-06-14 20:44:00,
2013-06-14 13:49:00,73.5,59.7,29.87,SSW,202,7.0,7.0,62,0.00,FEW,,0.00,889.0,WeatherDisplay:10.37,2013-06-14 20:49:00,
2013-06-14 13:54:00,73.4,59.1,29.87,South,186,7.0,7.0,61,0.00,SCT,,0.00,802.0,WeatherDisplay:10.37,2013-06-14 20:54:00,
2013-06-14 13:59:00,73.7,59.4,29.87,SSE,159,10.4,10.4,61,0.00,SCT,,0.00,705.0,WeatherDisplay:10.37,2013-06-14 20:59:00,
2013-06-14 14:04:00,74.0,59.7,29.87,SSW,212,8.0,8.0,61,0.00,FEW,,0.00,875.0,WeatherDisplay:10.37,2013-06-14 21:04:00,
2013-06-14 14:09:00,74.0,59.7,29.87,SSW,195,9.2,9.2,61,0.00,FEW,,0.00,870.0,WeatherDisplay:10.37,2013-06-14 21:09:00,
2013-06-14 14:14:00,74.0,59.7,29.87,SSW,207,7.0,7.0,61,0.00,FEW,,0.00,870.0,WeatherDisplay:10.37,2013-06-14 21:14:00,
2013-06-14 14:19:00,74.2,59.4,29.86,SW,229,13.0,13.0,60,0.00,FEW,,0.00,868.0,WeatherDisplay:10.37,2013-06-14 21:19:00,
2013-06-14 14:24:00,74.0,59.2,29.86,West,263,10.0,10.0,60,0.00,FEW,,0.00,851.0,WeatherDisplay:10.37,2013-06-14 21:24:00,
2013-06-14 14:29:00,74.3,59.5,29.86,SSW,211,10.4,10.4,60,0.00,FEW,,0.00,851.0,WeatherDisplay:10.37,2013-06-14 21:29:00,
2013-06-14 14:34:00,73.8,59.0,29.86,SW,221,10.4,10.4,60,0.00,FEW,,0.00,835.0,WeatherDisplay:10.37,2013-06-14 21:34:00,
2013-06-14 14:39:00,73.7,58.9,29.86,South,184,8.1,8.1,60,0.00,FEW,,0.00,837.0,WeatherDisplay:10.37,2013-06-14 21:39:00,
2013-06-14 14:44:00,73.9,59.1,29.86,SSE,168,10.0,10.0,60,0.00,FEW,,0.00,823.0,WeatherDisplay:10.37,2013-06-14 21:44:00,
2013-06-14 14:49:00,73.7,59.4,29.86,SSW,200,9.2,9.2,61,0.00,FEW,,0.00,817.0,WeatherDisplay:10.37,2013-06-14 21:49:00,
2013-06-14 14:54:00,73.8,59.5,29.86,South,175,10.0,10.0,61,0.00,FEW,,0.00,809.0,WeatherDisplay:10.37,2013-06-14 21:54:00,
2013-06-14 14:59:00,73.5,58.8,29.86,South,190,10.0,10.0,60,0.00,FEW,,0.00,798.0,WeatherDisplay:10.37,2013-06-14 21:59:00,
2013-06-14 15:04:00,72.8,59.0,29.86,SSW,198,8.1,8.1,62,0.00,FEW,,0.00,786.0,WeatherDisplay:10.37,2013-06-14 22:04:00,
2013-06-14 15:09:00,73.1,59.3,29.86,SSE,153,10.4,10.4,62,0.00,FEW,,0.00,777.0,WeatherDisplay:10.37,2013-06-14 22:09:00,
2013-06-14 15:14:00,73.1,59.3,29.86,South,169,6.9,6.9,62,0.00,FEW,,0.00,770.0,WeatherDisplay:10.37,2013-06-14 22:14:00,
2013-06-14 15:19:00,73.4,59.1,29.86,South,184,10.0,10.0,61,0.00,FEW,,0.00,758.0,WeatherDisplay:10.37,2013-06-14 22:19:00,
2013-06-14 15:24:00,73.8,60.0,29.86,South,172,11.0,11.0,62,0.00,FEW,,0.00,742.0,WeatherDisplay:10.37,2013-06-14 22:24:00,
2013-06-14 15:29:00,73.7,59.4,29.86,SW,219,10.0,10.0,61,0.00,FEW,,0.00,733.0,WeatherDisplay:10.37,2013-06-14 22:29:00,
2013-06-14 15:34:00,73.0,59.2,29.86,South,179,10.4,10.4,62,0.00,FEW,,0.00,722.0,WeatherDisplay:10.37,2013-06-14 22:34:00,
2013-06-14 15:39:00,72.4,58.6,29.86,SSW,205,12.7,12.7,62,0.00,FEW,,0.00,707.0,WeatherDisplay:10.37,2013-06-14 22:39:00,
2013-06-14 15:44:00,72.0,59.2,29.86,South,183,9.2,9.2,64,0.00,FEW,,0.00,694.0,WeatherDisplay:10.37,2013-06-14 22:44:00,
2013-06-14 15:49:00,72.1,58.8,29.85,SSW,198,11.5,11.5,63,0.00,FEW,,0.00,682.0,WeatherDisplay:10.37,2013-06-14 22:49:00,
2013-06-14 15:54:00,72.2,58.9,29.85,SSW,212,11.5,11.5,63,0.00,FEW,,0.00,673.0,WeatherDisplay:10.37,2013-06-14 22:54:00,
2013-06-14 15:59:00,72.2,58.9,29.85,SSW,205,8.1,8.1,63,0.00,FEW,,0.00,663.0,WeatherDisplay:10.37,2013-06-14 22:59:00,
2013-06-14 16:04:00,72.2,58.9,29.85,SE,124,8.1,8.1,63,0.00,FEW,,0.00,650.0,WeatherDisplay:10.37,2013-06-14 23:04:00,
2013-06-14 16:09:00,72.1,58.8,29.85,SSW,208,12.0,12.0,63,0.00,FEW,,0.00,633.0,WeatherDisplay:10.37,2013-06-14 23:09:00,
2013-06-14 16:14:00,71.6,58.8,29.85,South,169,11.5,11.5,64,0.00,FEW,,0.00,621.0,WeatherDisplay:10.37,2013-06-14 23:14:00,
2013-06-14 16:19:00,71.8,59.0,29.85,SSW,200,8.1,8.1,64,0.00,FEW,,0.00,608.0,WeatherDisplay:10.37,2013-06-14 23:19:00,
2013-06-14 16:24:00,71.6,58.8,29.85,SSE,167,12.0,12.0,64,0.00,FEW,,0.00,594.0,WeatherDisplay:10.37,2013-06-14 23:24:00,
2013-06-14 16:29:00,71.2,58.4,29.85,SSW,196,11.0,11.0,64,0.00,FEW,,0.00,577.0,WeatherDisplay:10.37,2013-06-14 23:29:00,
2013-06-14 16:34:00,70.5,58.6,29.85,SSW,212,9.2,9.2,66,0.00,CLR,,0.00,564.0,WeatherDisplay:10.37,2013-06-14 23:34:00,
2013-06-14 16:39:00,70.8,58.9,29.84,SSW,212,7.0,7.0,66,0.00,CLR,,0.00,550.0,WeatherDisplay:10.37,2013-06-14 23:39:00,
2013-06-14 16:44:00,71.1,58.7,29.84,South,171,10.0,10.0,65,0.00,CLR,,0.00,536.0,WeatherDisplay:10.37,2013-06-14 23:44:00,
2013-06-14 16:49:00,71.1,58.3,29.84,SSE,154,11.5,11.5,64,0.00,CLR,,0.00,519.0,WeatherDisplay:10.37,2013-06-14 23:49:00,
2013-06-14 16:54:00,71.0,58.6,29.84,SE,146,9.2,9.2,65,0.00,CLR,,0.00,512.0,WeatherDisplay:10.37,2013-06-14 23:54:00,
2013-06-14 16:59:00,71.1,58.3,29.84,South,182,10.4,10.4,64,0.00,CLR,,0.00,492.0,WeatherDisplay:10.37,2013-06-14 23:59:00,
2013-06-14 17:04:00,70.8,58.4,29.84,South,170,6.9,6.9,65,0.00,CLR,,0.00,480.0,WeatherDisplay:10.37,2013-06-15 00:04:00,
2013-06-14 17:09:00,70.7,58.4,29.84,SSW,203,8.1,8.1,65,0.00,CLR,,0.00,466.0,WeatherDisplay:10.37,2013-06-15 00:09:00,
2013-06-14 17:14:00,70.7,58.4,29.84,South,173,10.4,10.4,65,0.00,CLR,,0.00,446.0,WeatherDisplay:10.37,2013-06-15 00:14:00,
2013-06-14 17:19:00,70.5,58.2,29.84,SSW,205,8.1,8.1,65,0.00,CLR,,0.00,432.0,WeatherDisplay:10.37,2013-06-15 00:19:00,
2013-06-14 17:25:00,70.4,58.5,29.84,South,182,11.5,11.5,66,0.00,CLR,,0.00,415.0,WeatherDisplay:10.37,2013-06-15 00:25:00,
2013-06-14 17:30:00,70.2,58.3,29.84,South,188,9.2,9.2,66,0.00,CLR,,0.00,401.0,WeatherDisplay:10.37,2013-06-15 00:30:00,
2013-06-14 17:35:00,70.1,58.2,29.84,SSE,160,9.2,9.2,66,0.00,CLR,,0.00,383.0,WeatherDisplay:10.37,2013-06-15 00:35:00,
2013-06-14 17:40:00,69.7,58.3,29.84,SSW,200,10.4,10.4,67,0.00,CLR,,0.00,367.0,WeatherDisplay:10.37,2013-06-15 00:40:00,
2013-06-14 17:45:00,69.9,58.4,29.84,SW,216,7.0,7.0,67,0.00,CLR,,0.00,355.0,WeatherDisplay:10.37,2013-06-15 00:45:00,
2013-06-14 17:50:00,70.1,58.6,29.83,South,175,7.0,7.0,67,0.00,CLR,,0.00,339.0,WeatherDisplay:10.37,2013-06-15 00:50:00,
2013-06-14 17:55:00,69.7,58.3,29.83,South,171,9.2,9.2,67,0.00,CLR,,0.00,320.0,WeatherDisplay:10.37,2013-06-15 00:55:00,
2013-06-14 18:00:00,69.5,58.1,29.83,South,186,8.1,8.1,67,0.00,CLR,,0.00,306.0,WeatherDisplay:10.37,2013-06-15 01:00:00,
2013-06-14 18:05:00,69.5,58.1,29.84,SW,229,8.1,8.1,67,0.00,CLR,,0.00,292.0,WeatherDisplay:10.37,2013-06-15 01:05:00,
2013-06-14 18:10:00,69.7,58.3,29.84,South,169,7.0,7.0,67,0.00,CLR,,0.00,276.0,WeatherDisplay:10.37,2013-06-15 01:10:00,
2013-06-14 18:15:00,69.3,57.9,29.84,SSW,194,8.0,8.0,67,0.00,CLR,,0.00,260.0,WeatherDisplay:10.37,2013-06-15 01:15:00,
2013-06-14 18:20:00,69.2,58.2,29.84,South,171,9.2,9.2,68,0.00,CLR,,0.00,243.0,WeatherDisplay:10.37,2013-06-15 01:20:00,
2013-06-14 18:25:00,68.7,57.7,29.84,SSE,156,6.9,6.9,68,0.00,CLR,,0.00,227.0,WeatherDisplay:10.37,2013-06-15 01:25:00,
2013-06-14 18:30:00,68.4,57.8,29.84,South,190,7.0,7.0,69,0.00,FEW,,0.00,211.0,WeatherDisplay:10.37,2013-06-15 01:30:00,
2013-06-14 18:35:00,68.3,58.1,29.84,SSW,203,7.0,7.0,70,0.00,FEW,,0.00,195.0,WeatherDisplay:10.37,2013-06-15 01:35:00,
2013-06-14 18:40:00,68.4,57.8,29.84,South,188,10.4,10.4,69,0.00,FEW,,0.00,179.0,WeatherDisplay:10.37,2013-06-15 01:40:00,
2013-06-14 18:45:00,68.3,57.7,29.84,SSE,168,9.2,9.2,69,0.00,FEW,,0.00,162.0,WeatherDisplay:10.37,2013-06-15 01:45:00,
2013-06-14 18:50:00,68.0,57.8,29.84,South,188,6.9,6.9,70,0.00,FEW,,0.00,148.0,WeatherDisplay:10.37,2013-06-15 01:50:00,
2013-06-14 18:55:00,68.0,57.8,29.84,SE,146,10.4,10.4,70,0.00,FEW,,0.00,130.0,WeatherDisplay:10.37,2013-06-15 01:55:00,
2013-06-14 19:00:00,67.7,57.6,29.84,South,187,8.1,8.1,70,0.00,SCT,,0.00,113.0,WeatherDisplay:10.37,2013-06-15 02:00:00,
2013-06-14 19:05:00,67.4,57.7,29.84,SSE,162,7.0,7.0,71,0.00,SCT,,0.00,97.0,WeatherDisplay:10.37,2013-06-15 02:05:00,
2013-06-14 19:10:00,67.1,57.4,29.84,South,180,10.0,10.0,71,0.00,SCT,,0.00,84.0,WeatherDisplay:10.37,2013-06-15 02:10:00,
2013-06-14 19:15:00,66.9,57.2,29.85,South,179,6.9,6.9,71,0.00,SCT,,0.00,70.0,WeatherDisplay:10.37,2013-06-15 02:15:00,
2013-06-14 19:20:00,66.7,57.4,29.85,South,172,8.1,8.1,72,0.00,SCT,,0.00,53.0,WeatherDisplay:10.37,2013-06-15 02:20:00,
2013-06-14 19:25:00,66.5,57.2,29.85,SSW,194,7.0,7.0,72,0.00,SCT,,0.00,44.0,WeatherDisplay:10.37,2013-06-15 02:25:00,
2013-06-14 19:30:00,66.3,57.0,29.85,SSW,194,5.8,5.8,72,0.00,BKN,,0.00,35.0,WeatherDisplay:10.37,2013-06-15 02:30:00,
2013-06-14 19:35:00,66.1,57.2,29.85,SSW,196,6.9,6.9,73,0.00,BKN,,0.00,28.0,WeatherDisplay:10.37,2013-06-15 02:35:00,
2013-06-14 19:40:00,65.9,57.0,29.85,South,172,6.9,6.9,73,0.00,BKN,,0.00,21.0,WeatherDisplay:10.37,2013-06-15 02:40:00,
2013-06-14 19:45:00,65.4,56.9,29.85,SSE,154,8.0,8.0,74,0.00,BKN,,0.00,16.0,WeatherDisplay:10.37,2013-06-15 02:45:00,
2013-06-14 19:50:00,65.0,56.9,29.86,South,170,6.0,6.0,75,0.00,BKN,,0.00,12.0,WeatherDisplay:10.37,2013-06-15 02:50:00,
2013-06-14 19:55:00,64.8,56.7,29.86,South,171,6.0,6.0,75,0.00,BKN,,0.00,9.0,WeatherDisplay:10.37,2013-06-15 02:55:00,
2013-06-14 20:00:00,64.5,56.8,29.86,SSE,156,5.8,5.8,76,0.00,BKN,,0.00,5.0,WeatherDisplay:10.37,2013-06-15 03:00:00,
2013-06-14 20:05:00,64.5,56.8,29.86,SSW,209,6.0,6.0,76,0.00,CLR,,0.00,0.0,WeatherDisplay:10.37,2013-06-15 03:05:00,
2013-06-14 20:10:00,64.3,56.9,29.86,South,177,5.8,5.8,77,0.00,CLR,,0.00,0.0,WeatherDisplay:10.37,2013-06-15 03:10:00,
2013-06-14 20:15:00,64.0,56.6,29.86,South,172,7.0,7.0,77,0.00,CLR,,0.00,0.0,WeatherDisplay:10.37,2013-06-15 03:15:00,
2013-06-14 20:20:00,63.9,56.5,29.86,SSW,202,7.0,7.0,77,0.00,CLR,,0.00,0.0,WeatherDisplay:10.37,2013-06-15 03:20:00,
2013-06-14 20:25:00,63.8,56.4,29.86,SSW,198,6.9,6.9,77,0.00,CLR,,0.00,0.0,WeatherDisplay:10.37,2013-06-15 03:25:00,
2013-06-14 20:30:00,63.7,56.4,29.86,South,176,8.1,8.1,77,0.00,CLR,,0.00,0.0,WeatherDisplay:10.37,2013-06-15 03:30:00,
2013-06-14 20:35:00,63.4,56.4,29.86,South,180,5.8,5.8,78,0.00,CLR,,0.00,0.0,WeatherDisplay:10.37,2013-06-15 03:35:00,
2013-06-14 20:40:00,63.3,56.3,29.86,SSE,165,4.6,4.6,78,0.00,CLR,,0.00,0.0,WeatherDisplay:10.37,2013-06-15 03:40:00,
2013-06-14 20:45:00,63.2,56.2,29.86,SSE,159,4.6,4.6,78,0.00,CLR,,0.00,0.0,WeatherDisplay:10.37,2013-06-15 03:45:00,
2013-06-14 20:50:00,63.1,56.5,29.86,South,174,4.6,4.6,79,0.00,CLR,,0.00,0.0,WeatherDisplay:10.37,2013-06-15 03:50:00,
2013-06-14 20:55:00,63.0,56.4,29.87,SSW,209,6.9,6.9,79,0.00,CLR,,0.00,0.0,WeatherDisplay:10.37,2013-06-15 03:55:00,
2013-06-14 21:00:00,63.0,56.4,29.87,SSW,202,8.0,8.0,79,0.00,CLR,,0.00,0.0,WeatherDisplay:10.37,2013-06-15 04:00:00,
2013-06-14 21:01:00,63.0,56.4,29.87,SSW,200,6.9,6.9,79,0.00,CLR,,0.00,0.0,WeatherDisplay:10.37,2013-06-15 04:01:00,
2013-06-14 21:02:00,63.0,56.7,29.87,South,178,8.1,8.1,80,0.00,CLR,,0.00,0.0,WeatherDisplay:10.37,2013-06-15 04:02:00,
2013-06-14 21:07:00,62.9,56.6,29.87,SSE,155,5.0,5.0,80,0.00,CLR,,0.00,0.0,WeatherDisplay:10.37,2013-06-15 04:07:00,
2013-06-14 21:12:00,62.7,56.4,29.87,South,176,6.9,6.9,80,0.00,CLR,,0.00,0.0,WeatherDisplay:10.37,2013-06-15 04:12:00,
2013-06-14 21:17:00,62.5,56.2,29.87,SSW,192,5.0,5.0,80,0.00,CLR,,0.00,0.0,WeatherDisplay:10.37,2013-06-15 04:17:00,
2013-06-14 21:22:00,62.4,56.5,29.87,SSE,155,5.8,5.8,81,0.00,CLR,,0.00,0.0,WeatherDisplay:10.37,2013-06-15 04:22:00,
2013-06-14 21:27:00,62.3,56.4,29.88,South,174,4.6,4.6,81,0.00,CLR,,0.00,0.0,WeatherDisplay:10.37,2013-06-15 04:27:00,
2013-06-14 21:32:00,62.2,56.3,29.88,SSE,167,3.5,3.5,81,0.00,CLR,,0.00,0.0,WeatherDisplay:10.37,2013-06-15 04:32:00,
2013-06-14 21:37:00,62.2,56.3,29.88,SSE,159,5.0,5.0,81,0.00,CLR,,0.00,0.0,WeatherDisplay:10.37,2013-06-15 04:37:00,
2013-06-14 21:42:00,62.2,56.3,29.88,South,173,4.0,4.0,81,0.00,CLR,,0.00,0.0,WeatherDisplay:10.37,2013-06-15 04:42:00,
2013-06-14 21:47:00,62.2,56.6,29.88,South,169,4.0,4.0,82,0.00,CLR,,0.00,0.0,WeatherDisplay:10.37,2013-06-15 04:47:00,
2013-06-14 21:52:00,62.2,56.3,29.89,South,173,5.0,5.0,81,0.00,CLR,,0.00,0.0,WeatherDisplay:10.37,2013-06-15 04:52:00,
2013-06-14 21:57:00,62.1,56.2,29.89,South,173,3.5,3.5,81,0.00,CLR,,0.00,0.0,WeatherDisplay:10.37,2013-06-15 04:57:00,
2013-06-14 22:02:00,62.0,56.4,29.89,SSE,163,6.0,6.0,82,0.00,CLR,,0.00,0.0,WeatherDisplay:10.37,2013-06-15 05:02:00,
2013-06-14 22:07:00,62.0,56.4,29.89,SSE,163,5.0,5.0,82,0.00,CLR,,0.00,0.0,WeatherDisplay:10.37,2013-06-15 05:07:00,
2013-06-14 22:12:00,61.9,56.3,29.89,SSE,161,5.0,5.0,82,0.00,CLR,,0.00,0.0,WeatherDisplay:10.37,2013-06-15 05:12:00,
2013-06-14 22:17:00,61.8,56.2,29.89,SSE,159,3.5,3.5,82,0.00,CLR,,0.00,0.0,WeatherDisplay:10.37,2013-06-15 05:17:00,
2013-06-14 22:22:00,61.8,56.2,29.89,SSE,158,6.0,6.0,82,0.00,CLR,,0.00,0.0,WeatherDisplay:10.37,2013-06-15 05:22:00,
2013-06-14 22:27:00,61.7,56.1,29.89,SSE,159,5.0,5.0,82,0.00,CLR,,0.00,0.0,WeatherDisplay:10.37,2013-06-15 05:27:00,
2013-06-14 22:32:00,61.6,56.4,29.89,SSE,159,3.5,3.5,83,0.00,CLR,,0.00,0.0,WeatherDisplay:10.37,2013-06-15 05:32:00,
2013-06-14 22:37:00,61.6,56.4,29.89,SSE,148,6.0,6.0,83,0.00,CLR,,0.00,0.0,WeatherDisplay:10.37,2013-06-15 05:37:00,
2013-06-14 22:42:00,61.5,56.3,29.89,SSE,167,3.5,3.5,83,0.00,CLR,,0.00,0.0,WeatherDisplay:10.37,2013-06-15 05:42:00,
2013-06-14 22:47:00,61.5,56.3,29.89,SSE,165,6.9,6.9,83,0.00,CLR,,0.00,0.0,WeatherDisplay:10.37,2013-06-15 05:47:00,
2013-06-14 22:52:00,61.4,56.2,29.89,SSE,165,4.6,4.6,83,0.00,CLR,,0.00,0.0,WeatherDisplay:10.37,2013-06-15 05:52:00,
2013-06-14 22:57:00,61.4,56.2,29.89,SSE,165,3.5,3.5,83,0.00,CLR,,0.00,0.0,WeatherDisplay:10.37,2013-06-15 05:57:00,
2013-06-14 23:02:00,61.3,56.1,29.89,SSE,165,4.6,4.6,83,0.00,CLR,,0.00,0.0,WeatherDisplay:10.37,2013-06-15 06:02:00,
2013-06-14 23:07:00,61.3,56.1,29.89,SSE,165,4.6,4.6,83,0.00,CLR,,0.00,0.0,WeatherDisplay:10.37,2013-06-15 06:07:00,
2013-06-14 23:12:00,61.2,56.0,29.89,SSE,165,5.8,5.8,83,0.00,CLR,,0.00,0.0,WeatherDisplay:10.37,2013-06-15 06:12:00,
2013-06-14 23:17:00,61.2,56.0,29.89,SSE,165,5.8,5.8,83,0.00,CLR,,0.00,0.0,WeatherDisplay:10.37,2013-06-15 06:17:00,
2013-06-14 23:22:00,61.2,56.0,29.89,SSE,165,4.0,4.0,83,0.00,CLR,,0.00,0.0,WeatherDisplay:10.37,2013-06-15 06:22:00,
2013-06-14 23:27:00,61.2,56.0,29.89,SSE,165,4.6,4.6,83,0.00,CLR,,0.00,0.0,WeatherDisplay:10.37,2013-06-15 06:27:00,
2013-06-14 23:32:00,61.1,55.9,29.89,SSE,165,5.8,5.8,83,0.00,CLR,,0.00,0.0,WeatherDisplay:10.37,2013-06-15 06:32:00,
2013-06-14 23:37:00,61.2,56.0,29.89,SSE,165,3.5,3.5,83,0.00,CLR,,0.00,0.0,WeatherDisplay:10.37,2013-06-15 06:37:00,
2013-06-14 23:42:00,61.2,56.0,29.89,SSE,165,4.6,4.6,83,0.00,CLR,,0.00,0.0,WeatherDisplay:10.37,2013-06-15 06:42:00,
2013-06-14 23:47:00,61.2,56.0,29.89,SSE,151,6.9,6.9,83,0.00,CLR,,0.00,0.0,WeatherDisplay:10.37,2013-06-15 06:47:00,
2013-06-14 23:52:00,61.3,56.1,29.89,SE,140,6.0,6.0,83,0.00,CLR,,0.00,0.0,WeatherDisplay:10.37,2013-06-15 06:52:00,
2013-06-14 23:57:00,61.3,56.1,29.89,SSE,158,7.0,7.0,83,0.00,CLR,,0.00,0.0,WeatherDisplay:10.37,2013-06-15 06:57:00,